Date,TemperatureHighF,TemperatureAvgF,TemperatureLowF,DewpointHighF,DewpointAvgF,DewpointLowF,HumidityHigh,HumidityAvg,HumidityLow,PressureMaxIn,PressureMinIn,WindSpeedMaxMPH,WindSpeedAvgMPH,GustSpeedMaxMPH,PrecipitationSumIn
2013-2-1,33.6,25.6,15.8,18.0,11.5,8.0,72,52,41,29.96,29.35,40,13,40,0.00
2013-2-2,25.5,18.8,11.2,21.0,8.8,0.0,82,62,41,30.19,29.95,27,6,30,0.00
2013-2-3,28.0,24.0,21.3,24.0,20.5,18.0,94,84,74,30.07,29.64,21,6,21,0.00
2013-2-4,28.0,22.0,15.3,21.0,11.9,-6.0,89,63,38,29.78,29.52,38,14,39,0.00
2013-2-5,24.5,16.5,11.4,8.0,1.8,-6.0,62,47,37,30.03,29.77,34,8,34,0.00
2013-2-6,33.9,24.7,16.8,33.0,16.7,4.0,95,69,43,30.20,29.91,31,7,31,0.06
2013-2-7,19.4,12.1,7.5,11.0,1.7,-6.0,75,57,44,30.61,30.19,32,9,32,0.00
2013-2-8,20.3,13.0,4.6,18.0,8.9,-6.0,93,78,52,30.61,29.90,36,11,37,0.75
2013-2-9,19.0,16.3,12.8,18.0,15.0,11.0,94,92,89,29.99,29.59,48,14,50,29.07
2013-2-10,32.2,23.7,16.8,26.0,16.0,8.0,92,72,41,30.34,29.98,30,6,30,0.00
2013-2-11,44.6,31.5,17.4,44.0,26.6,4.0,99,81,44,30.33,29.56,22,4,23,0.45
2013-2-12,42.0,38.8,34.9,42.0,34.1,29.0,100,83,68,29.72,29.47,26,11,26,0.05
2013-2-13,42.6,36.9,32.5,31.0,28.4,26.0,86,70,54,29.79,29.69,20,6,20,0.00
2013-2-14,40.5,33.9,27.8,29.0,24.2,18.0,85,67,49,30.01,29.71,16,2,17,0.00
2013-2-15,44.0,38.3,27.5,39.0,33.5,23.0,89,82,67,30.02,29.94,24,5,25,0.00
2013-2-16,42.2,34.9,29.3,39.0,33.6,29.0,100,94,85,29.94,29.74,16,3,19,0.00
2013-2-17,29.2,24.8,20.3,29.0,22.9,14.0,98,92,74,29.74,28.91,54,13,54,5.18
2013-2-18,28.7,22.5,16.8,14.0,9.5,8.0,76,54,43,29.86,29.19,51,23,51,1.91
2013-2-19,41.0,32.0,21.9,40.0,19.5,4.0,97,59,40,30.07,29.74,38,8,38,0.07
2013-2-20,45.2,38.0,30.0,45.0,31.7,21.0,99,78,59,29.74,29.38,33,11,33,0.52
2013-2-21,34.7,29.3,25.0,32.0,22.4,16.0,94,73,62,30.07,29.55,32,8,32,0.00
2013-2-22,41.7,33.1,27.5,29.0,24.3,21.0,80,69,48,30.38,30.07,22,3,22,0.00
2013-2-23,32.8,30.2,27.0,28.0,25.9,23.0,90,84,72,30.37,30.07,18,6,18,0.00
2013-2-24,33.2,31.2,28.8,31.0,28.1,24.0,97,87,80,30.08,29.80,22,8,24,0.00
2013-2-25,44.2,29.9,23.8,26.0,21.4,14.0,84,69,30,30.23,29.87,17,2,17,0.00
2013-2-26,48.2,32.8,24.6,31.0,23.8,16.0,87,68,42,30.37,30.23,12,3,12,0.00
2013-2-27,37.9,34.0,27.8,35.0,30.3,26.0,99,85,72,30.30,29.78,34,11,37,0.15
2013-2-28,40.1,37.3,33.7,40.0,37.4,35.0,100,99,98,29.80,29.50,30,12,30,0.66